Location: Niedergestelen
(46.3129°N, 7.7822°E)
Time: 14:56:30
(UTC+00:00)

YAOGAN 3 - Pass Details

Date: 01 December 2020
Orbit: 625 x 627 km, 98.0° (Epoch: 28 January)

Event Time Altitude Azimuth Distance (km) Brightness Sun altitude
Rises 17:22:14 0° 161° (SSE) 2,899 8.0 -16.4°
Reaches altitude 10° 17:24:25 10° 160° (SSE) 1,997 7.1 -16.7°
Maximum altitude 17:28:46 78° 75° (ENE) 646 4.4 -17.4°
Drops below altitude 10° 17:33:09 10° 349° (N) 2,014 7.2 -18.2°
Sets 17:35:21 0° 348° (NNW) 2,926 8.0 -18.6°
